Time,TemperatureF,DewpointF,PressureIn,WindDirection,WindDirectionDegrees,WindSpeedMPH,WindSpeedGustMPH,Humidity,HourlyPrecipIn,Conditions,Clouds,dailyrainin,SoftwareType,DateUTC
2013-05-02 00:03:00,48.3,48.0,30.35,East,100,0.0,-999.0,97,-99.99,,,0.00,weatherlink.com 1.10,2013-05-02 04:03:00,
2013-05-02 00:18:00,48.3,48.0,30.36,East,101,3.0,-999.0,97,-99.99,,,0.00,weatherlink.com 1.10,2013-05-02 04:18:00,
2013-05-02 00:33:00,48.5,48.0,30.34,East,96,3.0,-999.0,97,-99.99,,,0.00,weatherlink.com 1.10,2013-05-02 04:33:00,
2013-05-02 00:48:00,48.5,48.0,30.34,ESE,105,4.0,-999.0,97,-99.99,,,0.00,weatherlink.com 1.10,2013-05-02 04:48:00,
2013-05-02 01:03:00,48.6,48.0,30.34,ESE,102,0.0,-999.0,97,-99.99,,,0.00,weatherlink.com 1.10,2013-05-02 05:03:00,
2013-05-02 01:18:00,48.6,48.0,30.34,ESE,107,0.0,-999.0,97,-99.99,,,0.00,weatherlink.com 1.10,2013-05-02 05:18:00,
2013-05-02 01:33:00,48.6,48.0,30.33,ESE,110,0.0,-999.0,98,-99.99,,,0.00,weatherlink.com 1.10,2013-05-02 05:33:00,
2013-05-02 01:48:00,48.6,48.0,30.32,ESE,111,0.0,-999.0,98,-99.99,,,0.00,weatherlink.com 1.10,2013-05-02 05:48:00,
2013-05-02 02:03:00,48.5,48.0,30.32,East,96,1.0,-999.0,98,-99.99,,,0.00,weatherlink.com 1.10,2013-05-02 06:03:00,
2013-05-02 02:18:00,48.3,48.0,30.31,East,96,0.0,-999.0,98,-99.99,,,0.00,weatherlink.com 1.10,2013-05-02 06:18:00,
2013-05-02 02:33:00,48.3,48.0,30.31,NNE,28,0.0,-999.0,98,-99.99,,,0.00,weatherlink.com 1.10,2013-05-02 06:33:00,
2013-05-02 02:48:00,48.0,48.0,30.31,ESE,111,1.0,-999.0,98,-99.99,,,0.00,weatherlink.com 1.10,2013-05-02 06:48:00,
2013-05-02 03:03:00,48.0,48.0,30.31,East,96,0.0,-999.0,98,-99.99,,,0.00,weatherlink.com 1.10,2013-05-02 07:03:00,
2013-05-02 03:18:00,48.0,48.0,30.30,East,101,1.0,-999.0,98,-99.99,,,0.00,weatherlink.com 1.10,2013-05-02 07:18:00,
2013-05-02 03:33:00,47.7,47.0,30.30,ESE,109,0.0,-999.0,98,-99.99,,,0.00,weatherlink.com 1.10,2013-05-02 07:33:00,
2013-05-02 03:48:00,47.3,47.0,30.31,East,98,0.0,-999.0,98,-99.99,,,0.00,weatherlink.com 1.10,2013-05-02 07:48:00,
2013-05-02 04:03:00,46.8,46.0,30.31,ESE,116,3.0,-999.0,98,-99.99,,,0.00,weatherlink.com 1.10,2013-05-02 08:03:00,
2013-05-02 04:18:00,46.8,46.0,30.31,SE,137,0.0,-999.0,98,-99.99,,,0.00,weatherlink.com 1.10,2013-05-02 08:18:00,
2013-05-02 04:33:00,46.7,46.0,30.32,North,9,2.0,-999.0,98,-99.99,,,0.00,weatherlink.com 1.10,2013-05-02 08:33:00,
2013-05-02 04:48:00,46.7,46.0,30.31,East,100,0.0,-999.0,98,-99.99,,,0.00,weatherlink.com 1.10,2013-05-02 08:48:00,
2013-05-02 05:03:00,46.5,46.0,30.31,East,100,0.0,-999.0,98,-99.99,,,0.00,weatherlink.com 1.10,2013-05-02 09:03:00,
2013-05-02 05:18:00,46.5,46.0,30.31,ENE,62,0.0,-999.0,98,-99.99,,,0.00,weatherlink.com 1.10,2013-05-02 09:18:00,
2013-05-02 05:33:00,46.5,46.0,30.31,East,86,0.0,-999.0,98,-99.99,,,0.00,weatherlink.com 1.10,2013-05-02 09:33:00,
2013-05-02 05:48:00,46.5,46.0,30.31,East,95,1.0,-999.0,98,-99.99,,,0.00,weatherlink.com 1.10,2013-05-02 09:48:00,
2013-05-02 06:04:00,46.0,46.0,30.31,ENE,72,0.0,-999.0,98,-99.99,,,0.00,weatherlink.com 1.10,2013-05-02 10:04:00,
2013-05-02 06:19:00,46.4,46.0,30.32,ESE,114,3.0,-999.0,98,-99.99,,,0.00,weatherlink.com 1.10,2013-05-02 10:19:00,
2013-05-02 06:34:00,46.7,46.0,30.32,SE,130,0.0,-999.0,98,-99.99,,,0.00,weatherlink.com 1.10,2013-05-02 10:34:00,
2013-05-02 06:49:00,47.0,47.0,30.33,ENE,73,0.0,-999.0,99,-99.99,,,0.00,weatherlink.com 1.10,2013-05-02 10:49:00,
2013-05-02 07:04:00,47.0,47.0,30.33,East,96,0.0,-999.0,99,-99.99,,,0.00,weatherlink.com 1.10,2013-05-02 11:04:00,
2013-05-02 07:19:00,46.8,47.0,30.33,East,86,0.0,-999.0,99,-99.99,,,0.00,weatherlink.com 1.10,2013-05-02 11:19:00,
2013-05-02 07:34:00,46.8,47.0,30.34,ESE,105,0.0,-999.0,99,-99.99,,,0.00,weatherlink.com 1.10,2013-05-02 11:34:00,
2013-05-02 07:49:00,47.3,47.0,30.35,ESE,105,1.0,-999.0,99,-99.99,,,0.00,weatherlink.com 1.10,2013-05-02 11:49:00,
2013-05-02 08:04:00,47.4,47.0,30.35,ESE,108,0.0,-999.0,99,-99.99,,,0.00,weatherlink.com 1.10,2013-05-02 12:04:00,
2013-05-02 08:19:00,47.4,47.0,30.36,ESE,109,1.0,-999.0,99,-99.99,,,0.00,weatherlink.com 1.10,2013-05-02 12:19:00,
2013-05-02 08:34:00,47.6,47.0,30.36,ESE,111,0.0,-999.0,99,-99.99,,,0.00,weatherlink.com 1.10,2013-05-02 12:34:00,
2013-05-02 08:49:00,47.7,48.0,30.36,ESE,111,0.0,-999.0,99,-99.99,,,0.00,weatherlink.com 1.10,2013-05-02 12:49:00,
2013-05-02 09:04:00,47.6,47.0,30.37,ESE,111,0.0,-999.0,99,-99.99,,,0.00,weatherlink.com 1.10,2013-05-02 13:04:00,
2013-05-02 09:19:00,47.9,48.0,30.36,ESE,107,0.0,-999.0,99,-99.99,,,0.00,weatherlink.com 1.10,2013-05-02 13:19:00,
2013-05-02 09:34:00,48.0,48.0,30.37,ESE,107,0.0,-999.0,99,-99.99,,,0.00,weatherlink.com 1.10,2013-05-02 13:34:00,
2013-05-02 09:49:00,48.2,48.0,30.38,ESE,107,0.0,-999.0,99,-99.99,,,0.00,weatherlink.com 1.10,2013-05-02 13:49:00,
2013-05-02 10:04:00,48.5,48.0,30.38,ESE,107,0.0,-999.0,99,-99.99,,,0.00,weatherlink.com 1.10,2013-05-02 14:04:00,
2013-05-02 10:19:00,48.8,49.0,30.37,ESE,107,0.0,-999.0,99,-99.99,,,0.00,weatherlink.com 1.10,2013-05-02 14:19:00,
2013-05-02 10:34:00,49.1,49.0,30.37,ESE,107,1.0,-999.0,99,-99.99,,,0.00,weatherlink.com 1.10,2013-05-02 14:34:00,
2013-05-02 10:49:00,49.5,49.0,30.37,ESE,107,2.0,-999.0,99,-99.99,,,0.00,weatherlink.com 1.10,2013-05-02 14:49:00,
2013-05-02 11:04:00,50.1,50.0,30.37,ESE,109,0.0,-999.0,99,-99.99,,,0.00,weatherlink.com 1.10,2013-05-02 15:04:00,
2013-05-02 11:19:00,50.4,50.0,30.38,East,82,0.0,-999.0,99,-99.99,,,0.00,weatherlink.com 1.10,2013-05-02 15:19:00,
2013-05-02 11:34:00,50.8,51.0,30.38,East,82,0.0,-999.0,99,-99.99,,,0.00,weatherlink.com 1.10,2013-05-02 15:34:00,
2013-05-02 11:49:00,51.4,51.0,30.38,East,82,0.0,-999.0,99,-99.99,,,0.00,weatherlink.com 1.10,2013-05-02 15:49:00,
2013-05-02 12:04:00,52.2,52.0,30.37,East,82,0.0,-999.0,99,-99.99,,,0.00,weatherlink.com 1.10,2013-05-02 16:04:00,
2013-05-02 12:19:00,52.8,53.0,30.37,East,84,1.0,-999.0,99,-99.99,,,0.00,weatherlink.com 1.10,2013-05-02 16:19:00,
2013-05-02 12:34:00,53.5,53.0,30.35,ESE,115,1.0,-999.0,99,-99.99,,,0.00,weatherlink.com 1.10,2013-05-02 16:34:00,
2013-05-02 12:49:00,52.9,53.0,30.35,ESE,105,1.0,-999.0,99,-99.99,,,0.00,weatherlink.com 1.10,2013-05-02 16:49:00,
2013-05-02 13:04:00,52.9,53.0,30.35,ESE,117,0.0,-999.0,99,-99.99,,,0.00,weatherlink.com 1.10,2013-05-02 17:04:00,
2013-05-02 13:19:00,52.9,52.0,30.36,ESE,117,0.0,-999.0,98,-99.99,,,0.00,weatherlink.com 1.10,2013-05-02 17:19:00,
2013-05-02 13:34:00,52.3,52.0,30.36,SE,126,0.0,-999.0,98,-99.99,,,0.00,weatherlink.com 1.10,2013-05-02 17:34:00,
2013-05-02 14:04:00,52.2,52.0,30.36,SE,126,0.0,-999.0,98,-99.99,,,0.00,weatherlink.com 1.10,2013-05-02 18:04:00,
2013-05-02 14:19:00,52.2,51.0,30.36,ESE,115,0.0,-999.0,97,-99.99,,,0.00,weatherlink.com 1.10,2013-05-02 18:19:00,
2013-05-02 14:34:00,52.5,52.0,30.36,ESE,119,0.0,-999.0,97,-99.99,,,0.00,weatherlink.com 1.10,2013-05-02 18:34:00,
2013-05-02 14:49:00,52.2,51.0,30.36,ESE,119,0.0,-999.0,97,-99.99,,,0.00,weatherlink.com 1.10,2013-05-02 18:49:00,
2013-05-02 15:04:00,52.2,51.0,30.36,ESE,119,1.0,-999.0,97,-99.99,,,0.00,weatherlink.com 1.10,2013-05-02 19:04:00,
2013-05-02 15:19:00,52.9,52.0,30.36,ESE,118,0.0,-999.0,97,-99.99,,,0.00,weatherlink.com 1.10,2013-05-02 19:19:00,
2013-05-02 15:34:00,53.1,52.0,30.35,ESE,118,0.0,-999.0,96,-99.99,,,0.00,weatherlink.com 1.10,2013-05-02 19:34:00,
2013-05-02 15:49:00,53.8,52.0,30.34,ESE,118,0.0,-999.0,95,-99.99,,,0.00,weatherlink.com 1.10,2013-05-02 19:49:00,
2013-05-02 16:04:00,53.3,51.0,30.34,ESE,119,0.0,-999.0,93,-99.99,,,0.00,weatherlink.com 1.10,2013-05-02 20:04:00,
2013-05-02 16:19:00,53.1,51.0,30.34,ESE,119,1.0,-999.0,93,-99.99,,,0.00,weatherlink.com 1.10,2013-05-02 20:19:00,
2013-05-02 16:34:00,52.8,51.0,30.33,ESE,119,0.0,-999.0,94,-99.99,,,0.00,weatherlink.com 1.10,2013-05-02 20:34:00,
2013-05-02 16:49:00,52.3,51.0,30.33,ESE,119,0.0,-999.0,95,-99.99,,,0.00,weatherlink.com 1.10,2013-05-02 20:49:00,
2013-05-02 17:04:00,52.0,51.0,30.34,ESE,119,0.0,-999.0,95,-99.99,,,0.00,weatherlink.com 1.10,2013-05-02 21:04:00,
2013-05-02 17:19:00,51.9,51.0,30.33,ESE,119,0.0,-999.0,96,-99.99,,,0.00,weatherlink.com 1.10,2013-05-02 21:19:00,
2013-05-02 17:34:00,51.9,51.0,30.33,ESE,119,0.0,-999.0,96,-99.99,,,0.00,weatherlink.com 1.10,2013-05-02 21:34:00,
2013-05-02 17:49:00,51.9,51.0,30.33,ESE,119,0.0,-999.0,96,-99.99,,,0.00,weatherlink.com 1.10,2013-05-02 21:49:00,
2013-05-02 18:04:00,51.4,50.0,30.33,ESE,113,0.0,-999.0,96,-99.99,,,0.00,weatherlink.com 1.10,2013-05-02 22:04:00,
2013-05-02 18:19:00,51.4,50.0,30.33,ESE,114,0.0,-999.0,96,-99.99,,,0.00,weatherlink.com 1.10,2013-05-02 22:19:00,
2013-05-02 18:34:00,51.3,50.0,30.32,ESE,114,0.0,-999.0,96,-99.99,,,0.00,weatherlink.com 1.10,2013-05-02 22:34:00,
2013-05-02 18:49:00,51.0,50.0,30.32,ESE,114,0.0,-999.0,96,-99.99,,,0.00,weatherlink.com 1.10,2013-05-02 22:49:00,
2013-05-02 19:04:00,50.8,50.0,30.32,ESE,114,2.0,-999.0,96,-99.99,,,0.00,weatherlink.com 1.10,2013-05-02 23:04:00,
2013-05-02 19:19:00,50.7,50.0,30.32,ESE,114,0.0,-999.0,96,-99.99,,,0.00,weatherlink.com 1.10,2013-05-02 23:19:00,
2013-05-02 19:34:00,50.5,49.0,30.32,ESE,114,0.0,-999.0,96,-99.99,,,0.00,weatherlink.com 1.10,2013-05-02 23:34:00,
2013-05-02 19:49:00,50.4,49.0,30.33,ESE,114,0.0,-999.0,96,-99.99,,,0.00,weatherlink.com 1.10,2013-05-02 23:49:00,
2013-05-02 20:04:00,50.4,49.0,30.33,ESE,113,1.0,-999.0,96,-99.99,,,0.00,weatherlink.com 1.10,2013-05-03 00:04:00,
2013-05-02 20:19:00,50.4,49.0,30.33,ESE,113,0.0,-999.0,96,-99.99,,,0.00,weatherlink.com 1.10,2013-05-03 00:19:00,
2013-05-02 20:34:00,50.2,49.0,30.32,ESE,114,0.0,-999.0,96,-99.99,,,0.00,weatherlink.com 1.10,2013-05-03 00:34:00,
2013-05-02 20:49:00,50.1,49.0,30.32,ESE,114,0.0,-999.0,96,-99.99,,,0.00,weatherlink.com 1.10,2013-05-03 00:49:00,
2013-05-02 21:04:00,49.9,49.0,30.32,SE,130,0.0,-999.0,96,-99.99,,,0.00,weatherlink.com 1.10,2013-05-03 01:04:00,
2013-05-02 21:19:00,49.8,49.0,30.33,ESE,115,2.0,-999.0,96,-99.99,,,0.00,weatherlink.com 1.10,2013-05-03 01:19:00,
2013-05-02 21:34:00,49.6,49.0,30.33,SE,124,1.0,-999.0,96,-99.99,,,0.00,weatherlink.com 1.10,2013-05-03 01:34:00,
2013-05-02 21:49:00,49.6,49.0,30.34,East,99,3.0,-999.0,96,-99.99,,,0.00,weatherlink.com 1.10,2013-05-03 01:49:00,
2013-05-02 22:04:00,49.5,49.0,30.34,ESE,106,0.0,-999.0,97,-99.99,,,0.00,weatherlink.com 1.10,2013-05-03 02:04:00,
2013-05-02 22:19:00,49.4,49.0,30.34,ESE,117,0.0,-999.0,97,-99.99,,,0.00,weatherlink.com 1.10,2013-05-03 02:19:00,
2013-05-02 22:34:00,49.1,48.0,30.34,ESE,112,0.0,-999.0,97,-99.99,,,0.00,weatherlink.com 1.10,2013-05-03 02:34:00,
2013-05-02 22:49:00,48.9,48.0,30.34,ESE,105,0.0,-999.0,97,-99.99,,,0.00,weatherlink.com 1.10,2013-05-03 02:49:00,
2013-05-02 23:04:00,48.8,48.0,30.34,ESE,116,1.0,-999.0,97,-99.99,,,0.00,weatherlink.com 1.10,2013-05-03 03:04:00,
2013-05-02 23:19:00,48.5,48.0,30.33,SE,139,4.0,-999.0,97,-99.99,,,0.00,weatherlink.com 1.10,2013-05-03 03:19:00,
2013-05-02 23:34:00,48.3,48.0,30.32,ESE,107,0.0,-999.0,98,-99.99,,,0.00,weatherlink.com 1.10,2013-05-03 03:34:00,
2013-05-02 23:49:00,48.2,48.0,30.32,ESE,110,0.0,-999.0,98,-99.99,,,0.00,weatherlink.com 1.10,2013-05-03 03:49:00,